Time,TemperatureF,DewpointF,PressureIn,WindDirection,WindDirectionDegrees,WindSpeedMPH,WindSpeedGustMPH,Humidity,HourlyPrecipIn,Conditions,Clouds,dailyrainin,SolarRadiationWatts/m^2,SoftwareType,DateUTC
2013-04-23 00:02:00,38.0,28.0,-100.00,East,95,2.0,4.0,66,0.00,,,0.00,0.800000,,2013-04-23 08:02:00,
2013-04-23 00:11:00,38.0,28.0,-100.00,East,95,2.0,4.0,66,0.00,,,0.00,0.800000,,2013-04-23 08:11:00,
2013-04-23 00:21:00,38.0,28.0,-100.00,East,95,2.0,4.0,66,0.00,,,0.00,0.800000,,2013-04-23 08:21:00,
2013-04-23 00:52:00,38.0,28.0,-100.00,West,263,0.0,5.0,66,0.00,,,0.00,0.800000,,2013-04-23 08:52:00,
2013-04-23 01:01:00,38.0,28.0,-100.00,West,263,0.0,5.0,66,0.00,,,0.00,0.800000,,2013-04-23 09:01:00,
2013-04-23 01:11:00,38.0,28.0,-100.00,West,263,0.0,5.0,66,0.00,,,0.00,0.800000,,2013-04-23 09:11:00,
2013-04-23 01:21:00,38.0,28.0,-100.00,West,263,0.0,5.0,66,0.00,,,0.00,0.800000,,2013-04-23 09:21:00,
2013-04-23 01:53:00,37.0,28.0,-100.00,West,276,3.0,4.0,70,0.00,,,0.00,0.800000,,2013-04-23 09:53:00,
2013-04-23 02:02:00,37.0,28.0,-100.00,West,276,3.0,4.0,70,0.00,,,0.00,0.800000,,2013-04-23 10:02:00,
2013-04-23 02:12:00,37.0,28.0,-100.00,West,276,3.0,4.0,70,0.00,,,0.00,0.800000,,2013-04-23 10:12:00,
2013-04-23 02:22:00,37.0,28.0,-100.00,West,276,3.0,4.0,70,0.00,,,0.00,0.800000,,2013-04-23 10:22:00,
2013-04-23 02:52:00,37.0,32.0,-100.00,SSW,208,5.0,5.0,82,0.01,,,0.01,0.800000,,2013-04-23 10:52:00,
2013-04-23 03:02:00,37.0,32.0,-100.00,SSW,208,5.0,5.0,82,0.01,,,0.01,0.800000,,2013-04-23 11:02:00,
2013-04-23 03:12:00,37.0,32.0,-100.00,SSW,208,5.0,5.0,82,0.01,,,0.01,0.800000,,2013-04-23 11:12:00,
2013-04-23 03:21:00,37.0,32.0,-100.00,SSW,208,5.0,5.0,82,0.01,,,0.01,0.800000,,2013-04-23 11:21:00,
2013-04-23 03:53:00,35.0,33.0,-100.00,NNE,14,5.0,8.0,93,0.10,,,0.11,0.800000,,2013-04-23 11:53:00,
2013-04-23 04:02:00,35.0,33.0,-100.00,NNE,14,5.0,8.0,93,0.10,,,0.11,0.800000,,2013-04-23 12:02:00,
2013-04-23 04:12:00,35.0,33.0,-100.00,NNE,14,5.0,8.0,93,0.10,,,0.11,0.800000,,2013-04-23 12:12:00,
2013-04-23 04:22:00,35.0,33.0,-100.00,NNE,14,5.0,8.0,93,0.10,,,0.11,0.800000,,2013-04-23 12:22:00,
2013-04-23 04:52:00,33.0,33.0,-100.00,North,7,2.0,11.0,98,0.06,,,0.17,0.800000,,2013-04-23 12:52:00,
2013-04-23 05:01:00,33.0,33.0,-100.00,North,7,2.0,11.0,98,0.06,,,0.17,0.800000,,2013-04-23 13:01:00,
2013-04-23 05:11:00,33.0,33.0,-100.00,North,7,2.0,11.0,98,0.06,,,0.17,0.800000,,2013-04-23 13:11:00,
2013-04-23 05:21:00,33.0,33.0,-100.00,North,7,2.0,11.0,98,0.06,,,0.17,0.800000,,2013-04-23 13:21:00,
2013-04-23 05:52:00,34.0,34.0,-100.00,West,276,3.0,8.0,98,0.05,,,0.22,0.800000,,2013-04-23 13:52:00,
2013-04-23 06:01:00,34.0,34.0,-100.00,West,276,3.0,8.0,98,0.05,,,0.22,0.800000,,2013-04-23 14:01:00,
2013-04-23 06:11:00,34.0,34.0,-100.00,West,276,3.0,8.0,98,0.05,,,0.22,0.800000,,2013-04-23 14:11:00,
2013-04-23 06:22:00,34.0,34.0,-100.00,West,276,3.0,8.0,98,0.05,,,0.22,0.800000,,2013-04-23 14:22:00,
2013-04-23 06:52:00,35.0,34.0,-100.00,ENE,62,2.0,6.0,95,0.04,,,0.26,1.000000,,2013-04-23 14:52:00,
2013-04-23 07:01:00,35.0,34.0,-100.00,ENE,62,2.0,6.0,95,0.04,,,0.26,1.000000,,2013-04-23 15:01:00,
2013-04-23 07:12:00,35.0,34.0,-100.00,ENE,62,2.0,6.0,95,0.04,,,0.26,1.000000,,2013-04-23 15:12:00,
2013-04-23 07:21:00,35.0,34.0,-100.00,ENE,62,2.0,6.0,95,0.04,,,0.26,1.000000,,2013-04-23 15:21:00,
2013-04-23 07:53:00,36.0,34.0,-100.00,WSW,253,5.0,6.0,91,0.06,,,0.32,7.600000,,2013-04-23 15:53:00,
2013-04-23 08:02:00,36.0,34.0,-100.00,WSW,253,5.0,6.0,91,0.06,,,0.32,7.600000,,2013-04-23 16:02:00,
2013-04-23 08:12:00,36.0,34.0,-100.00,WSW,253,5.0,6.0,91,0.06,,,0.32,7.600000,,2013-04-23 16:12:00,
2013-04-23 08:23:00,36.0,34.0,-100.00,WSW,253,5.0,6.0,91,0.06,,,0.32,7.600000,,2013-04-23 16:23:00,
2013-04-23 08:53:00,35.0,34.0,-100.00,North,349,6.0,10.0,94,0.05,,,0.37,26.200001,,2013-04-23 16:53:00,
2013-04-23 09:02:00,35.0,34.0,-100.00,North,349,6.0,10.0,94,0.05,,,0.37,26.200001,,2013-04-23 17:02:00,
2013-04-23 09:11:00,35.0,34.0,-100.00,North,349,6.0,10.0,94,0.05,,,0.37,26.200001,,2013-04-23 17:11:00,
2013-04-23 09:22:00,35.0,34.0,-100.00,North,349,6.0,10.0,94,0.05,,,0.37,26.200001,,2013-04-23 17:22:00,
2013-04-23 09:53:00,35.0,33.0,-100.00,ENE,59,7.0,13.0,94,0.04,,,0.41,50.000000,,2013-04-23 17:53:00,
2013-04-23 10:02:00,35.0,33.0,-100.00,ENE,59,7.0,13.0,94,0.04,,,0.41,50.000000,,2013-04-23 18:02:00,
2013-04-23 10:12:00,35.0,33.0,-100.00,ENE,59,7.0,13.0,94,0.04,,,0.41,50.000000,,2013-04-23 18:12:00,
2013-04-23 10:22:00,35.0,33.0,-100.00,ENE,59,7.0,13.0,94,0.04,,,0.41,50.000000,,2013-04-23 18:22:00,
2013-04-23 10:52:00,35.0,33.0,-100.00,NE,39,5.0,12.0,92,0.03,,,0.44,97.300003,,2013-04-23 18:52:00,
2013-04-23 11:02:00,35.0,33.0,-100.00,NE,39,5.0,12.0,92,0.03,,,0.44,97.300003,,2013-04-23 19:02:00,
2013-04-23 11:11:00,35.0,33.0,-100.00,NE,39,5.0,12.0,92,0.03,,,0.44,97.300003,,2013-04-23 19:11:00,
2013-04-23 11:21:00,35.0,33.0,-100.00,NE,39,5.0,12.0,92,0.03,,,0.44,97.300003,,2013-04-23 19:21:00,
2013-04-23 11:52:00,36.0,34.0,-100.00,NE,52,5.0,6.0,91,0.05,,,0.49,131.000000,,2013-04-23 19:52:00,
2013-04-23 12:01:00,36.0,34.0,-100.00,NE,52,5.0,6.0,91,0.05,,,0.49,131.000000,,2013-04-23 20:01:00,
2013-04-23 12:11:00,36.0,34.0,-100.00,NE,52,5.0,6.0,91,0.05,,,0.49,131.000000,,2013-04-23 20:11:00,
2013-04-23 12:21:00,36.0,34.0,-100.00,NE,52,5.0,6.0,91,0.05,,,0.49,131.000000,,2013-04-23 20:21:00,
2013-04-23 12:52:00,37.0,35.0,-100.00,NE,52,4.0,8.0,92,0.02,,,-99.99,214.000000,,2013-04-23 20:52:00,
2013-04-23 13:01:00,37.0,35.0,-100.00,NE,52,4.0,8.0,92,0.02,,,-99.99,214.000000,,2013-04-23 21:01:00,
2013-04-23 13:11:00,37.0,35.0,-100.00,NE,52,4.0,8.0,92,0.02,,,-99.99,214.000000,,2013-04-23 21:11:00,
2013-04-23 13:21:00,37.0,35.0,-100.00,NE,52,4.0,8.0,92,0.02,,,-99.99,214.000000,,2013-04-23 21:21:00,
2013-04-23 13:52:00,39.0,35.0,-100.00,East,97,2.0,8.0,86,0.03,,,0.54,233.000000,,2013-04-23 21:52:00,
2013-04-23 14:03:00,39.0,35.0,-100.00,East,97,2.0,8.0,86,0.03,,,0.54,233.000000,,2013-04-23 22:03:00,
2013-04-23 14:12:00,39.0,35.0,-100.00,East,97,2.0,8.0,86,0.03,,,0.54,233.000000,,2013-04-23 22:12:00,
2013-04-23 14:22:00,39.0,35.0,-100.00,East,97,2.0,8.0,86,0.03,,,0.54,233.000000,,2013-04-23 22:22:00,
2013-04-23 14:52:00,41.0,36.0,-100.00,NNE,15,1.0,6.0,85,0.03,,,0.57,255.800003,,2013-04-23 22:52:00,
2013-04-23 15:02:00,41.0,36.0,-100.00,NNE,15,1.0,6.0,85,0.03,,,0.57,255.800003,,2013-04-23 23:02:00,
2013-04-23 15:12:00,41.0,36.0,-100.00,NNE,15,1.0,6.0,85,0.03,,,0.57,255.800003,,2013-04-23 23:12:00,
2013-04-23 15:21:00,41.0,36.0,-100.00,NNE,15,1.0,6.0,85,0.03,,,0.57,255.800003,,2013-04-23 23:21:00,
2013-04-23 15:52:00,39.0,36.0,-100.00,NNE,24,4.0,4.0,88,0.01,,,0.58,240.199997,,2013-04-23 23:52:00,
2013-04-23 16:01:00,39.0,36.0,-100.00,NNE,24,4.0,4.0,88,0.01,,,0.58,240.199997,,2013-04-24 00:01:00,
2013-04-23 16:11:00,39.0,36.0,-100.00,NNE,24,4.0,4.0,88,0.01,,,0.58,240.199997,,2013-04-24 00:11:00,
2013-04-23 16:21:00,39.0,36.0,-100.00,NNE,24,4.0,4.0,88,0.01,,,0.58,240.199997,,2013-04-24 00:21:00,
2013-04-23 16:52:00,41.0,36.0,-100.00,NNE,25,2.0,4.0,83,0.01,,,0.59,223.199997,,2013-04-24 00:52:00,
2013-04-23 17:01:00,41.0,36.0,-100.00,NNE,25,2.0,4.0,83,0.01,,,0.59,223.199997,,2013-04-24 01:01:00,
2013-04-23 17:11:00,41.0,36.0,-100.00,NNE,25,2.0,4.0,83,0.01,,,0.59,223.199997,,2013-04-24 01:11:00,
2013-04-23 17:21:00,41.0,36.0,-100.00,NNE,25,2.0,4.0,83,0.01,,,0.59,223.199997,,2013-04-24 01:21:00,
2013-04-23 17:52:00,42.0,37.0,-100.00,West,276,1.0,3.0,82,0.01,,,0.60,223.699997,,2013-04-24 01:52:00,
2013-04-23 18:02:00,42.0,37.0,-100.00,West,276,1.0,3.0,82,0.01,,,0.60,223.699997,,2013-04-24 02:02:00,
2013-04-23 18:13:00,42.0,37.0,-100.00,West,276,1.0,3.0,82,0.01,,,0.60,223.699997,,2013-04-24 02:13:00,
2013-04-23 18:24:00,42.0,37.0,-100.00,West,276,1.0,3.0,82,0.01,,,0.60,223.699997,,2013-04-24 02:24:00,
2013-04-23 18:58:00,42.0,36.0,-100.00,NW,306,1.0,3.0,81,0.02,,,0.62,203.199997,,2013-04-24 02:58:00,
2013-04-23 19:05:00,42.0,36.0,-100.00,NW,306,1.0,3.0,81,0.02,,,0.62,203.199997,,2013-04-24 03:05:00,
2013-04-23 19:14:00,42.0,36.0,-100.00,NW,306,1.0,3.0,81,0.02,,,0.62,203.199997,,2013-04-24 03:14:00,
2013-04-23 19:24:00,42.0,36.0,-100.00,NW,306,1.0,3.0,81,0.02,,,0.62,203.199997,,2013-04-24 03:24:00,
2013-04-23 20:03:00,39.0,36.0,-100.00,West,273,2.0,2.0,88,0.00,,,0.62,107.900002,,2013-04-24 04:03:00,
2013-04-23 20:12:00,39.0,36.0,-100.00,West,273,2.0,2.0,88,0.00,,,0.62,107.900002,,2013-04-24 04:12:00,
2013-04-23 20:22:00,39.0,36.0,-100.00,West,273,2.0,2.0,88,0.00,,,0.62,107.900002,,2013-04-24 04:22:00,
2013-04-23 20:53:00,38.0,36.0,-100.00,WSW,255,3.0,3.0,91,0.00,,,0.62,73.599998,,2013-04-24 04:53:00,
2013-04-23 21:02:00,38.0,36.0,-100.00,WSW,255,3.0,3.0,91,0.00,,,0.62,73.599998,,2013-04-24 05:02:00,
2013-04-23 21:12:00,38.0,36.0,-100.00,WSW,255,3.0,3.0,91,0.00,,,0.62,73.599998,,2013-04-24 05:12:00,
2013-04-23 21:21:00,38.0,36.0,-100.00,WSW,255,3.0,3.0,91,0.00,,,0.62,73.599998,,2013-04-24 05:21:00,
2013-04-23 21:52:00,37.0,36.0,-100.00,SSE,154,3.0,4.0,96,0.01,,,0.63,33.000000,,2013-04-24 05:52:00,
2013-04-23 22:02:00,37.0,36.0,-100.00,SSE,154,3.0,4.0,96,0.01,,,0.63,33.000000,,2013-04-24 06:02:00,
2013-04-23 22:11:00,37.0,36.0,-100.00,SSE,154,3.0,4.0,96,0.01,,,0.63,33.000000,,2013-04-24 06:11:00,
2013-04-23 22:21:00,37.0,36.0,-100.00,SSE,154,3.0,4.0,96,0.01,,,0.63,33.000000,,2013-04-24 06:21:00,
2013-04-23 22:52:00,36.0,36.0,-100.00,NW,305,0.0,4.0,98,0.00,,,0.63,2.800000,,2013-04-24 06:52:00,
2013-04-23 23:02:00,36.0,36.0,-100.00,NW,305,0.0,4.0,98,0.00,,,0.63,2.800000,,2013-04-24 07:02:00,
2013-04-23 23:11:00,36.0,36.0,-100.00,NW,305,0.0,4.0,98,0.00,,,0.63,2.800000,,2013-04-24 07:11:00,
2013-04-23 23:21:00,36.0,36.0,-100.00,NW,305,0.0,4.0,98,0.00,,,0.63,2.800000,,2013-04-24 07:21:00,
2013-04-23 23:52:00,36.0,36.0,-100.00,WNW,282,2.0,3.0,98,0.00,,,0.63,0.800000,,2013-04-24 07:52:00,